Time,TemperatureF,DewpointF,PressureIn,WindDirection,WindDirectionDegrees,WindSpeedMPH,WindSpeedGustMPH,Humidity,HourlyPrecipIn,Conditions,Clouds,dailyrainin,SolarRadiationWatts/m^2,SoftwareType,DateUTC
2013-03-18 00:00:00,36.8,29.0,30.27,ENE,69,0.0,0.0,73,0.00,,,0.00,0,Wunderground v.1.15,2013-03-18 04:00:00,
2013-03-18 00:03:00,36.9,28.7,30.27,ENE,64,2.0,4.0,72,0.00,,,0.00,0,Wunderground v.1.15,2013-03-18 04:03:00,
2013-03-18 00:08:00,36.9,28.7,30.28,ENE,68,0.0,5.0,72,0.00,,,0.00,0,Wunderground v.1.15,2013-03-18 04:08:00,
2013-03-18 00:13:00,36.9,28.7,30.28,ENE,71,0.0,2.0,72,0.00,,,0.00,0,Wunderground v.1.15,2013-03-18 04:13:00,
2013-03-18 00:20:00,36.9,28.7,30.28,ENE,61,0.0,0.0,72,0.00,,,0.00,0,Wunderground v.1.15,2013-03-18 04:20:00,
2013-03-18 00:25:00,37.0,28.5,30.28,ENE,61,0.0,0.0,71,0.00,,,0.00,0,Wunderground v.1.15,2013-03-18 04:25:00,
2013-03-18 00:31:00,37.0,28.5,30.28,ENE,61,0.0,0.0,71,0.00,,,0.00,0,Wunderground v.1.15,2013-03-18 04:31:00,
2013-03-18 00:37:00,36.9,28.0,30.28,ENE,67,1.0,3.0,70,0.00,,,0.00,0,Wunderground v.1.15,2013-03-18 04:37:00,
2013-03-18 00:43:00,36.9,27.7,30.29,ENE,74,0.0,3.0,69,0.00,,,0.00,0,Wunderground v.1.15,2013-03-18 04:43:00,
2013-03-18 00:48:00,36.9,27.7,30.28,ENE,74,0.0,3.0,69,0.00,,,0.00,0,Wunderground v.1.15,2013-03-18 04:48:00,
2013-03-18 00:53:00,36.9,27.3,30.28,ENE,69,0.0,4.0,68,0.00,,,0.00,0,Wunderground v.1.15,2013-03-18 04:53:00,
2013-03-18 01:00:00,36.9,27.3,30.28,East,80,1.0,3.0,68,0.00,,,0.00,0,Wunderground v.1.15,2013-03-18 05:00:00,
2013-03-18 01:05:00,36.8,26.9,30.28,ENE,78,0.0,4.0,67,0.00,,,0.00,0,Wunderground v.1.15,2013-03-18 05:05:00,
2013-03-18 01:11:00,36.8,26.9,30.28,ENE,78,0.0,1.0,67,0.00,,,0.00,0,Wunderground v.1.15,2013-03-18 05:11:00,
2013-03-18 01:18:00,36.8,26.9,30.28,ENE,78,0.0,1.0,67,0.00,,,0.00,0,Wunderground v.1.15,2013-03-18 05:18:00,
2013-03-18 01:23:00,36.8,26.9,30.28,ENE,78,0.0,0.0,67,0.00,,,0.00,0,Wunderground v.1.15,2013-03-18 05:23:00,
2013-03-18 01:28:00,36.8,26.9,30.28,ENE,76,0.0,0.0,67,0.00,,,0.00,0,Wunderground v.1.15,2013-03-18 05:28:00,
2013-03-18 01:33:00,36.8,26.9,30.28,ENE,68,2.0,3.0,67,0.00,,,0.00,0,Wunderground v.1.15,2013-03-18 05:33:00,
2013-03-18 01:40:00,36.8,26.5,30.28,ENE,76,4.0,4.0,66,0.00,,,0.00,0,Wunderground v.1.15,2013-03-18 05:40:00,
2013-03-18 01:45:00,36.8,26.5,30.28,ENE,67,0.0,4.0,66,0.00,,,0.00,0,Wunderground v.1.15,2013-03-18 05:45:00,
2013-03-18 01:50:00,36.8,26.1,30.28,ENE,57,4.0,4.0,65,0.00,,,0.00,0,Wunderground v.1.15,2013-03-18 05:50:00,
2013-03-18 01:55:00,36.7,26.0,30.28,ENE,74,5.0,5.0,65,0.00,,,0.00,0,Wunderground v.1.15,2013-03-18 05:55:00,
2013-03-18 02:00:00,36.7,26.0,30.28,ENE,72,0.0,2.0,65,0.00,,,0.00,0,Wunderground v.1.15,2013-03-18 06:00:00,
2013-03-18 02:05:00,36.7,25.7,30.28,East,79,0.0,5.0,64,0.00,,,0.00,0,Wunderground v.1.15,2013-03-18 06:05:00,
2013-03-18 02:10:00,36.7,26.0,30.28,ENE,78,0.0,1.0,65,0.00,,,0.00,0,Wunderground v.1.15,2013-03-18 06:10:00,
2013-03-18 02:15:00,36.7,26.0,30.28,ENE,74,0.0,2.0,65,0.00,,,0.00,0,Wunderground v.1.15,2013-03-18 06:15:00,
2013-03-18 02:20:00,36.7,26.0,30.28,East,79,2.0,5.0,65,0.00,,,0.00,0,Wunderground v.1.15,2013-03-18 06:20:00,
2013-03-18 02:25:00,36.7,25.7,30.28,ENE,77,5.0,7.0,64,0.00,,,0.00,0,Wunderground v.1.15,2013-03-18 06:25:00,
2013-03-18 02:30:00,36.6,25.6,30.28,ENE,57,0.0,2.0,64,0.00,,,0.00,0,Wunderground v.1.15,2013-03-18 06:30:00,
2013-03-18 02:35:00,36.6,25.2,30.27,East,90,3.0,4.0,63,0.00,,,0.00,0,Wunderground v.1.15,2013-03-18 06:35:00,
2013-03-18 02:41:00,36.5,24.7,30.27,East,91,5.0,5.0,62,0.00,,,0.00,0,Wunderground v.1.15,2013-03-18 06:41:00,
2013-03-18 02:46:00,36.5,24.3,30.28,East,89,5.0,9.0,61,0.00,,,0.00,0,Wunderground v.1.15,2013-03-18 06:46:00,
2013-03-18 02:51:00,36.4,23.4,30.28,ENE,60,0.0,7.0,59,0.00,,,0.00,0,Wunderground v.1.15,2013-03-18 06:51:00,
2013-03-18 02:56:00,36.4,23.4,30.28,ENE,76,0.0,7.0,59,0.00,,,0.00,0,Wunderground v.1.15,2013-03-18 06:56:00,
2013-03-18 03:01:00,36.3,23.3,30.27,ENE,71,0.0,5.0,59,0.00,,,0.00,0,Wunderground v.1.15,2013-03-18 07:01:00,
2013-03-18 03:06:00,36.3,23.3,30.28,ENE,62,3.0,5.0,59,0.00,,,0.00,0,Wunderground v.1.15,2013-03-18 07:06:00,
2013-03-18 03:11:00,36.3,23.3,30.28,ENE,74,4.0,5.0,59,0.00,,,0.00,0,Wunderground v.1.15,2013-03-18 07:11:00,
2013-03-18 03:16:00,36.2,23.2,30.28,ENE,59,0.0,7.0,59,0.00,,,0.00,0,Wunderground v.1.15,2013-03-18 07:16:00,
2013-03-18 03:21:00,36.2,23.2,30.28,ENE,61,0.0,3.0,59,0.00,,,0.00,0,Wunderground v.1.15,2013-03-18 07:21:00,
2013-03-18 03:26:00,36.2,23.2,30.27,ENE,75,5.0,9.0,59,0.00,,,0.00,0,Wunderground v.1.15,2013-03-18 07:26:00,
2013-03-18 03:31:00,36.2,23.2,30.28,ENE,71,3.0,7.0,59,0.00,,,0.00,0,Wunderground v.1.15,2013-03-18 07:31:00,
2013-03-18 03:37:00,36.1,23.1,30.27,ENE,69,0.0,7.0,59,0.00,,,0.00,0,Wunderground v.1.15,2013-03-18 07:37:00,
2013-03-18 03:42:00,36.1,23.1,30.27,NE,53,0.0,8.0,59,0.00,,,0.00,0,Wunderground v.1.15,2013-03-18 07:42:00,
2013-03-18 03:47:00,36.1,23.1,30.27,ENE,77,4.0,8.0,59,0.00,,,0.00,0,Wunderground v.1.15,2013-03-18 07:47:00,
2013-03-18 03:52:00,36.0,23.4,30.27,ENE,69,0.0,5.0,60,0.00,,,0.00,0,Wunderground v.1.15,2013-03-18 07:52:00,
2013-03-18 03:57:00,36.0,23.4,30.27,ENE,59,0.0,5.0,60,0.00,,,0.00,0,Wunderground v.1.15,2013-03-18 07:57:00,
2013-03-18 04:02:00,36.0,23.4,30.27,ENE,71,2.0,4.0,60,0.00,,,0.00,0,Wunderground v.1.15,2013-03-18 08:02:00,
2013-03-18 04:07:00,36.0,23.4,30.27,ENE,71,0.0,4.0,60,0.00,,,0.00,0,Wunderground v.1.15,2013-03-18 08:07:00,
2013-03-18 04:12:00,35.9,23.4,30.27,East,86,2.0,5.0,60,0.00,,,0.00,0,Wunderground v.1.15,2013-03-18 08:12:00,
2013-03-18 04:17:00,35.9,23.4,30.27,East,79,5.0,9.0,60,0.00,,,0.00,0,Wunderground v.1.15,2013-03-18 08:17:00,
2013-03-18 04:22:00,35.9,23.4,30.27,ENE,65,4.0,4.0,60,0.00,,,0.00,0,Wunderground v.1.15,2013-03-18 08:22:00,
2013-03-18 04:27:00,35.9,23.4,30.27,ENE,67,4.0,8.0,60,0.00,,,0.00,0,Wunderground v.1.15,2013-03-18 08:27:00,
2013-03-18 04:32:00,35.8,23.3,30.27,NE,46,0.0,6.0,60,0.00,,,0.00,0,Wunderground v.1.15,2013-03-18 08:32:00,
2013-03-18 04:37:00,35.8,23.3,30.27,ENE,69,0.0,6.0,60,0.00,,,0.00,0,Wunderground v.1.15,2013-03-18 08:37:00,
2013-03-18 04:42:00,35.8,23.3,30.27,East,87,3.0,3.0,60,0.00,,,0.00,0,Wunderground v.1.15,2013-03-18 08:42:00,
2013-03-18 04:47:00,35.8,23.3,30.27,ENE,75,4.0,9.0,60,0.00,,,0.00,0,Wunderground v.1.15,2013-03-18 08:47:00,
2013-03-18 04:52:00,35.7,23.2,30.27,ENE,78,5.0,8.0,60,0.00,,,0.00,0,Wunderground v.1.15,2013-03-18 08:52:00,
2013-03-18 04:58:00,35.7,23.2,30.27,ENE,78,0.0,8.0,60,0.00,,,0.00,0,Wunderground v.1.15,2013-03-18 08:58:00,
2013-03-18 05:03:00,35.7,23.2,30.27,ENE,70,1.0,3.0,60,0.00,,,0.00,0,Wunderground v.1.15,2013-03-18 09:03:00,
2013-03-18 05:08:00,35.7,23.6,30.27,ENE,68,9.0,9.0,61,0.00,,,0.00,0,Wunderground v.1.15,2013-03-18 09:08:00,
2013-03-18 05:13:00,35.7,23.6,30.27,East,80,0.0,7.0,61,0.00,,,0.00,0,Wunderground v.1.15,2013-03-18 09:13:00,
2013-03-18 05:18:00,35.7,23.6,30.27,NE,55,0.0,9.0,61,0.00,,,0.00,0,Wunderground v.1.15,2013-03-18 09:18:00,
2013-03-18 05:23:00,35.7,23.6,30.27,ENE,76,7.0,8.0,61,0.00,,,0.00,0,Wunderground v.1.15,2013-03-18 09:23:00,
2013-03-18 05:28:00,35.6,23.5,30.27,ENE,74,5.0,8.0,61,0.00,,,0.00,0,Wunderground v.1.15,2013-03-18 09:28:00,
2013-03-18 05:33:00,35.6,23.9,30.27,East,79,5.0,9.0,62,0.00,,,0.00,0,Wunderground v.1.15,2013-03-18 09:33:00,
2013-03-18 05:39:00,35.6,23.9,30.28,ENE,78,0.0,9.0,62,0.00,,,0.00,0,Wunderground v.1.15,2013-03-18 09:39:00,
2013-03-18 05:43:00,35.6,23.9,30.28,ENE,57,0.0,7.0,62,0.00,,,0.00,0,Wunderground v.1.15,2013-03-18 09:43:00,
2013-03-18 05:48:00,35.6,24.2,30.28,ENE,77,0.0,7.0,63,0.00,,,0.00,0,Wunderground v.1.15,2013-03-18 09:48:00,
2013-03-18 05:53:00,35.6,24.2,30.28,NE,51,3.0,6.0,63,0.00,,,0.00,0,Wunderground v.1.15,2013-03-18 09:53:00,
2013-03-18 05:59:00,35.5,24.1,30.29,ENE,61,5.0,10.0,63,0.00,,,0.00,0,Wunderground v.1.15,2013-03-18 09:59:00,
2013-03-18 06:04:00,35.5,24.1,30.29,ENE,63,7.0,10.0,63,0.00,,,0.00,0,Wunderground v.1.15,2013-03-18 10:04:00,
2013-03-18 06:09:00,35.4,24.0,30.29,ENE,78,0.0,10.0,63,0.00,,,0.00,0,Wunderground v.1.15,2013-03-18 10:09:00,
2013-03-18 06:14:00,35.4,24.4,30.31,ENE,68,0.0,5.0,64,0.00,,,0.00,0,Wunderground v.1.15,2013-03-18 10:14:00,
2013-03-18 06:19:00,35.3,24.3,30.31,East,79,6.0,6.0,64,0.00,,,0.00,0,Wunderground v.1.15,2013-03-18 10:19:00,
2013-03-18 06:25:00,35.1,24.5,30.31,NE,56,0.0,8.0,65,0.00,,,0.00,0,Wunderground v.1.15,2013-03-18 10:25:00,
2013-03-18 06:30:00,34.9,24.7,30.31,NE,48,5.0,5.0,66,0.00,,,0.00,0,Wunderground v.1.15,2013-03-18 10:30:00,
2013-03-18 06:35:00,34.7,24.5,30.32,NE,54,0.0,8.0,66,0.00,,,0.00,0,Wunderground v.1.15,2013-03-18 10:35:00,
2013-03-18 06:40:00,34.6,24.8,30.31,East,88,1.0,9.0,67,0.00,,,0.00,0,Wunderground v.1.15,2013-03-18 10:40:00,
2013-03-18 06:45:00,34.4,24.2,30.32,ENE,65,2.0,9.0,66,0.00,,,0.00,0,Wunderground v.1.15,2013-03-18 10:45:00,
2013-03-18 06:50:00,34.3,24.5,30.32,ENE,65,0.0,6.0,67,0.00,,,0.00,0,Wunderground v.1.15,2013-03-18 10:50:00,
2013-03-18 06:55:00,34.1,24.3,30.31,East,92,6.0,10.0,67,0.00,,,0.00,0,Wunderground v.1.15,2013-03-18 10:55:00,
2013-03-18 07:00:00,33.9,24.4,30.31,East,83,3.0,8.0,68,0.00,,,0.00,0,Wunderground v.1.15,2013-03-18 11:00:00,
2013-03-18 07:05:00,33.6,24.5,30.32,East,81,5.0,11.0,69,0.00,,,0.00,0,Wunderground v.1.15,2013-03-18 11:05:00,
2013-03-18 07:10:00,33.5,24.4,30.31,ENE,59,5.0,8.0,69,0.00,,,0.00,0,Wunderground v.1.15,2013-03-18 11:10:00,
2013-03-18 07:15:00,33.3,24.6,30.32,NE,51,5.0,10.0,70,0.00,,,0.00,0,Wunderground v.1.15,2013-03-18 11:15:00,
2013-03-18 07:20:00,33.1,24.4,30.32,NE,53,3.0,8.0,70,0.00,,,0.00,0,Wunderground v.1.15,2013-03-18 11:20:00,
2013-03-18 07:25:00,32.9,24.5,30.32,ENE,63,3.0,8.0,71,0.00,,,0.00,0,Wunderground v.1.15,2013-03-18 11:25:00,
2013-03-18 07:31:00,32.8,24.4,30.32,ENE,76,0.0,2.0,71,0.00,,,0.00,9,Wunderground v.1.15,2013-03-18 11:31:00,
2013-03-18 07:36:00,32.8,24.4,30.32,East,86,0.0,5.0,71,0.00,,,0.00,12,Wunderground v.1.15,2013-03-18 11:36:00,
2013-03-18 07:41:00,32.8,24.8,30.32,SE,132,5.0,7.0,72,0.00,,,0.00,14,Wunderground v.1.15,2013-03-18 11:41:00,
2013-03-18 07:46:00,32.7,25.0,30.32,East,89,1.0,9.0,73,0.00,,,0.00,16,Wunderground v.1.15,2013-03-18 11:46:00,
2013-03-18 07:51:00,32.6,24.9,30.32,SE,140,2.0,8.0,73,0.00,,,0.00,12,Wunderground v.1.15,2013-03-18 11:51:00,
2013-03-18 07:56:00,32.5,24.8,30.32,ESE,110,0.0,9.0,73,0.00,,,0.00,9,Wunderground v.1.15,2013-03-18 11:56:00,
2013-03-18 08:01:00,32.5,25.1,30.32,ESE,110,0.0,2.0,74,0.00,,,0.00,9,Wunderground v.1.15,2013-03-18 12:01:00,
2013-03-18 08:06:00,32.5,25.5,30.32,SSE,150,2.0,6.0,75,0.00,,,0.00,12,Wunderground v.1.15,2013-03-18 12:06:00,
2013-03-18 08:11:00,32.5,25.5,30.32,SE,138,4.0,4.0,75,0.00,,,0.00,12,Wunderground v.1.15,2013-03-18 12:11:00,
2013-03-18 08:16:00,32.4,26.0,30.33,SE,139,3.0,4.0,77,0.00,,,0.00,14,Wunderground v.1.15,2013-03-18 12:16:00,
2013-03-18 08:21:00,32.2,26.1,30.32,SE,140,1.0,4.0,78,0.00,,,0.00,14,Wunderground v.1.15,2013-03-18 12:21:00,
2013-03-18 08:27:00,32.0,26.5,30.32,SE,142,6.0,6.0,80,0.00,,,0.00,14,Wunderground v.1.15,2013-03-18 12:27:00,
2013-03-18 08:32:00,31.7,26.5,30.32,SE,142,0.0,1.0,81,0.00,,,0.00,18,Wunderground v.1.15,2013-03-18 12:32:00,
2013-03-18 08:37:00,31.7,26.8,30.32,SE,142,0.0,1.0,82,0.00,,,0.00,21,Wunderground v.1.15,2013-03-18 12:37:00,
2013-03-18 08:42:00,31.6,26.7,30.31,SE,142,0.0,6.0,82,0.00,,,0.00,26,Wunderground v.1.15,2013-03-18 12:42:00,
2013-03-18 08:47:00,31.6,27.0,30.31,SE,142,0.0,6.0,83,0.00,,,0.00,28,Wunderground v.1.15,2013-03-18 12:47:00,
2013-03-18 08:52:00,31.5,26.9,30.31,SE,142,0.0,0.0,83,0.00,,,0.01,28,Wunderground v.1.15,2013-03-18 12:52:00,
2013-03-18 08:57:00,31.5,27.2,30.31,SE,142,0.0,2.0,84,0.00,,,0.01,35,Wunderground v.1.15,2013-03-18 12:57:00,
2013-03-18 09:02:00,31.5,27.2,30.31,SE,142,0.0,0.0,84,0.00,,,0.01,37,Wunderground v.1.15,2013-03-18 13:02:00,
2013-03-18 09:07:00,31.5,27.2,30.30,SE,142,1.0,1.0,84,0.00,,,0.01,32,Wunderground v.1.15,2013-03-18 13:07:00,
2013-03-18 09:12:00,31.5,27.2,30.30,SE,142,0.0,0.0,84,0.00,,,0.01,40,Wunderground v.1.15,2013-03-18 13:12:00,
2013-03-18 09:17:00,31.5,27.5,30.30,SE,142,0.0,0.0,85,0.00,,,0.01,30,Wunderground v.1.15,2013-03-18 13:17:00,
2013-03-18 09:22:00,31.5,27.5,30.30,SE,142,0.0,0.0,85,0.00,,,0.01,40,Wunderground v.1.15,2013-03-18 13:22:00,
2013-03-18 09:27:00,31.5,27.5,30.30,SE,141,0.0,4.0,85,0.00,,,0.01,44,Wunderground v.1.15,2013-03-18 13:27:00,
2013-03-18 09:32:00,31.5,27.5,30.29,SE,140,0.0,0.0,85,0.00,,,0.01,42,Wunderground v.1.15,2013-03-18 13:32:00,
2013-03-18 09:37:00,31.6,27.9,30.29,SE,140,0.0,0.0,86,0.00,,,0.01,46,Wunderground v.1.15,2013-03-18 13:37:00,
2013-03-18 09:43:00,31.7,28.0,30.29,SE,141,0.0,0.0,86,0.00,,,0.01,40,Wunderground v.1.15,2013-03-18 13:43:00,
2013-03-18 09:48:00,31.7,28.0,30.28,SE,141,0.0,0.0,86,0.00,,,0.01,62,Wunderground v.1.15,2013-03-18 13:48:00,
2013-03-18 09:54:00,31.8,28.1,30.28,SE,141,0.0,0.0,86,0.00,,,0.01,74,Wunderground v.1.15,2013-03-18 13:54:00,
2013-03-18 09:59:00,31.9,28.2,30.28,SE,141,0.0,0.0,86,0.00,,,0.01,86,Wunderground v.1.15,2013-03-18 13:59:00,
2013-03-18 10:04:00,32.0,28.6,30.28,SE,141,0.0,0.0,87,0.00,,,0.01,77,Wunderground v.1.15,2013-03-18 14:04:00,
2013-03-18 10:09:00,32.1,28.7,30.28,SE,137,0.0,2.0,87,0.00,,,0.01,65,Wunderground v.1.15,2013-03-18 14:09:00,
2013-03-18 10:14:00,32.1,28.7,30.28,SE,136,0.0,3.0,87,0.00,,,0.01,67,Wunderground v.1.15,2013-03-18 14:14:00,
2013-03-18 10:19:00,32.1,28.7,30.28,SE,131,2.0,4.0,87,0.00,,,0.01,63,Wunderground v.1.15,2013-03-18 14:19:00,
2013-03-18 10:24:00,32.2,28.8,30.27,SE,130,2.0,4.0,87,0.00,,,0.01,69,Wunderground v.1.15,2013-03-18 14:24:00,
2013-03-18 10:29:00,32.2,28.8,30.27,SE,129,0.0,4.0,87,0.00,,,0.01,76,Wunderground v.1.15,2013-03-18 14:29:00,
2013-03-18 10:34:00,32.3,28.9,30.27,SE,125,0.0,4.0,87,0.00,,,0.01,74,Wunderground v.1.15,2013-03-18 14:34:00,
2013-03-18 10:39:00,32.4,29.0,30.27,SE,124,0.0,4.0,87,0.00,,,0.01,77,Wunderground v.1.15,2013-03-18 14:39:00,
2013-03-18 10:44:00,32.6,29.2,30.27,SE,124,0.0,0.0,87,0.00,,,0.01,102,Wunderground v.1.15,2013-03-18 14:44:00,
2013-03-18 10:49:00,32.9,29.5,30.26,SE,126,3.0,4.0,87,0.00,,,0.01,95,Wunderground v.1.15,2013-03-18 14:49:00,
2013-03-18 10:54:00,33.1,29.7,30.26,ESE,123,0.0,4.0,87,0.00,,,0.01,79,Wunderground v.1.15,2013-03-18 14:54:00,
2013-03-18 10:59:00,33.2,29.5,30.26,ESE,114,3.0,5.0,86,0.00,,,0.01,77,Wunderground v.1.15,2013-03-18 14:59:00,
2013-03-18 11:04:00,33.3,29.6,30.26,SSE,154,2.0,8.0,86,0.00,,,0.01,72,Wunderground v.1.15,2013-03-18 15:04:00,
2013-03-18 11:09:00,33.4,29.7,30.26,SE,139,0.0,8.0,86,0.00,,,0.01,93,Wunderground v.1.15,2013-03-18 15:09:00,
2013-03-18 11:14:00,33.5,29.8,30.26,SE,138,0.0,3.0,86,0.00,,,0.01,91,Wunderground v.1.15,2013-03-18 15:14:00,
2013-03-18 11:19:00,33.5,29.8,30.26,ENE,78,2.0,5.0,86,0.00,,,0.01,88,Wunderground v.1.15,2013-03-18 15:19:00,
2013-03-18 11:25:00,33.5,29.8,30.25,East,80,2.0,6.0,86,0.00,,,0.01,107,Wunderground v.1.15,2013-03-18 15:25:00,
2013-03-18 11:30:00,33.5,29.8,30.24,ENE,77,1.0,5.0,86,0.00,,,0.01,128,Wunderground v.1.15,2013-03-18 15:30:00,
2013-03-18 11:35:00,33.8,30.3,30.23,ENE,63,3.0,7.0,87,0.00,,,0.01,178,Wunderground v.1.15,2013-03-18 15:35:00,
2013-03-18 11:40:00,34.3,30.8,30.22,East,84,3.0,5.0,87,0.00,,,0.01,227,Wunderground v.1.15,2013-03-18 15:40:00,
2013-03-18 11:45:00,34.6,30.8,30.21,ESE,105,7.0,7.0,86,0.00,,,0.01,265,Wunderground v.1.15,2013-03-18 15:45:00,
2013-03-18 11:50:00,34.9,31.1,30.22,East,80,7.0,7.0,86,0.00,,,0.01,206,Wunderground v.1.15,2013-03-18 15:50:00,
2013-03-18 11:56:00,34.8,30.8,30.21,ESE,110,5.0,8.0,85,0.00,,,0.01,204,Wunderground v.1.15,2013-03-18 15:56:00,
2013-03-18 12:01:00,34.7,30.7,30.20,East,96,3.0,6.0,85,0.00,,,0.01,197,Wunderground v.1.15,2013-03-18 16:01:00,
2013-03-18 12:06:00,35.0,30.9,30.20,ESE,118,2.0,7.0,85,0.00,,,0.01,156,Wunderground v.1.15,2013-03-18 16:06:00,
2013-03-18 12:11:00,35.0,30.7,30.20,East,91,3.0,6.0,84,0.00,,,0.01,167,Wunderground v.1.15,2013-03-18 16:11:00,
2013-03-18 12:16:00,35.2,30.9,30.19,East,88,5.0,9.0,84,0.00,,,0.01,148,Wunderground v.1.15,2013-03-18 16:16:00,
2013-03-18 12:20:00,35.2,30.9,30.20,East,87,3.0,5.0,84,0.00,,,0.01,121,Wunderground v.1.15,2013-03-18 16:20:00,
2013-03-18 12:25:00,35.4,31.0,30.20,SSE,150,3.0,6.0,84,0.00,,,0.01,93,Wunderground v.1.15,2013-03-18 16:25:00,
2013-03-18 12:30:00,35.4,30.8,30.20,ENE,68,2.0,4.0,83,0.00,,,0.01,90,Wunderground v.1.15,2013-03-18 16:30:00,
2013-03-18 12:36:00,35.6,30.9,30.20,ENE,74,3.0,5.0,83,0.00,,,0.01,81,Wunderground v.1.15,2013-03-18 16:36:00,
2013-03-18 12:41:00,35.7,31.0,30.20,ENE,71,0.0,3.0,83,0.00,,,0.01,69,Wunderground v.1.15,2013-03-18 16:41:00,
2013-03-18 12:46:00,35.8,31.1,30.21,ESE,109,0.0,3.0,83,0.00,,,0.01,67,Wunderground v.1.15,2013-03-18 16:46:00,
2013-03-18 12:51:00,35.9,31.2,30.21,ESE,109,1.0,4.0,83,0.00,,,0.01,67,Wunderground v.1.15,2013-03-18 16:51:00,
2013-03-18 12:56:00,35.9,31.2,30.20,East,84,2.0,8.0,83,0.00,,,0.01,86,Wunderground v.1.15,2013-03-18 16:56:00,
2013-03-18 13:01:00,36.0,31.3,30.20,East,82,1.0,6.0,83,0.00,,,0.01,84,Wunderground v.1.15,2013-03-18 17:01:00,
2013-03-18 13:07:00,36.1,31.4,30.19,SE,131,0.0,6.0,83,0.00,,,0.01,86,Wunderground v.1.15,2013-03-18 17:07:00,
2013-03-18 13:12:00,36.2,31.5,30.19,SE,130,0.0,2.0,83,0.00,,,0.01,81,Wunderground v.1.15,2013-03-18 17:12:00,
2013-03-18 13:17:00,36.3,31.3,30.17,ESE,117,0.0,5.0,82,0.00,,,0.01,93,Wunderground v.1.15,2013-03-18 17:17:00,
2013-03-18 13:22:00,36.4,31.4,30.17,SSE,157,2.0,9.0,82,0.00,,,0.01,83,Wunderground v.1.15,2013-03-18 17:22:00,
2013-03-18 13:27:00,36.6,31.6,30.17,SE,142,2.0,9.0,82,0.00,,,0.01,90,Wunderground v.1.15,2013-03-18 17:27:00,
2013-03-18 13:32:00,36.7,31.7,30.17,East,79,0.0,3.0,82,0.00,,,0.01,116,Wunderground v.1.15,2013-03-18 17:32:00,
2013-03-18 13:37:00,36.8,31.5,30.17,East,82,3.0,7.0,81,0.00,,,0.01,97,Wunderground v.1.15,2013-03-18 17:37:00,
2013-03-18 13:43:00,36.8,31.5,30.17,ESE,115,0.0,7.0,81,0.00,,,0.01,62,Wunderground v.1.15,2013-03-18 17:43:00,
2013-03-18 13:48:00,36.8,31.8,30.16,ESE,111,0.0,7.0,82,0.00,,,0.01,62,Wunderground v.1.15,2013-03-18 17:48:00,
2013-03-18 13:53:00,36.8,31.8,30.15,East,90,2.0,5.0,82,0.00,,,0.01,67,Wunderground v.1.15,2013-03-18 17:53:00,
2013-03-18 13:58:00,36.8,31.8,30.15,ENE,70,0.0,7.0,82,0.00,,,0.01,56,Wunderground v.1.15,2013-03-18 17:58:00,
2013-03-18 14:04:00,36.8,31.8,30.16,ENE,77,0.0,4.0,82,0.00,,,0.01,56,Wunderground v.1.15,2013-03-18 18:04:00,
2013-03-18 14:09:00,36.8,31.8,30.14,East,81,3.0,8.0,82,0.00,,,0.01,54,Wunderground v.1.15,2013-03-18 18:09:00,
2013-03-18 14:14:00,36.8,31.8,30.14,ENE,72,0.0,5.0,82,0.00,,,0.01,53,Wunderground v.1.15,2013-03-18 18:14:00,
2013-03-18 14:19:00,36.8,31.8,30.14,East,79,2.0,6.0,82,0.00,,,0.01,63,Wunderground v.1.15,2013-03-18 18:19:00,
2013-03-18 14:24:00,36.8,31.8,30.13,ENE,75,3.0,8.0,82,0.00,,,0.01,67,Wunderground v.1.15,2013-03-18 18:24:00,
2013-03-18 14:29:00,36.8,31.8,30.13,SE,133,3.0,8.0,82,0.00,,,0.01,40,Wunderground v.1.15,2013-03-18 18:29:00,
2013-03-18 14:34:00,36.9,32.2,30.13,East,82,2.0,2.0,83,0.00,,,0.01,35,Wunderground v.1.15,2013-03-18 18:34:00,
2013-03-18 14:39:00,36.8,32.1,30.13,East,90,2.0,6.0,83,0.00,,,0.01,32,Wunderground v.1.15,2013-03-18 18:39:00,
2013-03-18 14:44:00,36.8,32.1,30.12,East,88,0.0,1.0,83,0.00,,,0.01,32,Wunderground v.1.15,2013-03-18 18:44:00,
2013-03-18 14:49:00,36.8,32.1,30.11,East,80,3.0,6.0,83,0.00,,,0.01,37,Wunderground v.1.15,2013-03-18 18:49:00,
2013-03-18 14:54:00,36.8,32.4,30.10,ENE,76,3.0,4.0,84,0.00,,,0.01,35,Wunderground v.1.15,2013-03-18 18:54:00,
2013-03-18 14:59:00,36.8,32.4,30.09,ENE,66,2.0,5.0,84,0.00,,,0.01,53,Wunderground v.1.15,2013-03-18 18:59:00,
2013-03-18 15:04:00,36.7,32.6,30.09,ENE,76,3.0,7.0,85,0.00,,,0.01,40,Wunderground v.1.15,2013-03-18 19:04:00,
2013-03-18 15:09:00,36.7,32.6,30.09,ENE,69,0.0,7.0,85,0.00,,,0.01,37,Wunderground v.1.15,2013-03-18 19:09:00,
2013-03-18 15:14:00,36.6,32.8,30.09,ENE,68,0.0,4.0,86,0.00,,,0.01,42,Wunderground v.1.15,2013-03-18 19:14:00,
2013-03-18 15:19:00,36.6,32.8,30.08,ENE,71,0.0,4.0,86,0.00,,,0.01,40,Wunderground v.1.15,2013-03-18 19:19:00,
2013-03-18 15:24:00,36.6,32.8,30.08,ENE,71,0.0,1.0,86,0.00,,,0.01,37,Wunderground v.1.15,2013-03-18 19:24:00,
2013-03-18 15:29:00,36.5,32.7,30.08,ENE,63,0.0,5.0,86,0.00,,,0.01,42,Wunderground v.1.15,2013-03-18 19:29:00,
2013-03-18 15:34:00,36.4,32.9,30.07,ENE,75,3.0,4.0,87,0.00,,,0.01,46,Wunderground v.1.15,2013-03-18 19:34:00,
2013-03-18 15:39:00,36.4,32.9,30.07,ENE,71,0.0,5.0,87,0.00,,,0.01,32,Wunderground v.1.15,2013-03-18 19:39:00,
2013-03-18 15:44:00,36.3,32.8,30.07,ENE,69,0.0,3.0,87,0.00,,,0.01,30,Wunderground v.1.15,2013-03-18 19:44:00,
2013-03-18 15:49:00,36.3,33.1,30.08,ENE,69,0.0,3.0,88,0.00,,,0.01,21,Wunderground v.1.15,2013-03-18 19:49:00,
2013-03-18 15:54:00,36.3,33.1,30.07,ENE,69,0.0,0.0,88,0.00,,,0.01,21,Wunderground v.1.15,2013-03-18 19:54:00,
2013-03-18 15:59:00,36.3,33.1,30.07,ENE,68,0.0,0.0,88,0.00,,,0.01,19,Wunderground v.1.15,2013-03-18 19:59:00,
2013-03-18 16:04:00,36.3,33.1,30.07,ENE,65,3.0,4.0,88,0.00,,,0.01,14,Wunderground v.1.15,2013-03-18 20:04:00,
2013-03-18 16:09:00,36.2,33.0,30.06,ENE,65,0.0,4.0,88,0.00,,,0.01,14,Wunderground v.1.15,2013-03-18 20:09:00,
2013-03-18 16:14:00,36.2,33.0,30.06,ENE,62,0.0,1.0,88,0.00,,,0.01,14,Wunderground v.1.15,2013-03-18 20:14:00,
2013-03-18 16:19:00,36.2,33.3,30.07,ENE,61,0.0,1.0,89,0.00,,,0.01,11,Wunderground v.1.15,2013-03-18 20:19:00,
2013-03-18 16:24:00,36.2,33.3,30.07,ENE,61,0.0,0.0,89,0.00,,,0.01,11,Wunderground v.1.15,2013-03-18 20:24:00,
2013-03-18 16:29:00,36.2,33.3,30.06,ENE,60,0.0,0.0,89,0.00,,,0.02,12,Wunderground v.1.15,2013-03-18 20:29:00,
2013-03-18 16:34:00,36.2,33.3,30.05,ENE,61,0.0,0.0,89,0.00,,,0.02,16,Wunderground v.1.15,2013-03-18 20:34:00,
2013-03-18 16:39:00,36.3,33.4,30.05,ENE,59,0.0,0.0,89,0.00,,,0.02,21,Wunderground v.1.15,2013-03-18 20:39:00,
2013-03-18 16:44:00,36.3,33.4,30.05,ENE,59,0.0,0.0,89,0.00,,,0.02,18,Wunderground v.1.15,2013-03-18 20:44:00,
2013-03-18 16:50:00,36.3,33.4,30.05,ENE,59,0.0,0.0,89,0.00,,,0.02,23,Wunderground v.1.15,2013-03-18 20:50:00,
2013-03-18 16:55:00,36.4,33.7,30.05,ENE,59,0.0,0.0,90,0.21,,,0.04,25,Wunderground v.1.15,2013-03-18 20:55:00,
2013-03-18 17:00:00,36.4,33.7,30.05,ENE,59,0.0,0.0,90,0.20,,,0.06,18,Wunderground v.1.15,2013-03-18 21:00:00,
2013-03-18 17:05:00,36.4,33.7,30.05,ENE,59,0.0,0.0,90,0.08,,,0.06,11,Wunderground v.1.15,2013-03-18 21:05:00,
2013-03-18 17:10:00,36.5,33.8,30.06,ENE,59,0.0,0.0,90,0.05,,,0.06,14,Wunderground v.1.15,2013-03-18 21:10:00,
2013-03-18 17:15:00,36.6,33.9,30.05,ENE,59,0.0,0.0,90,0.04,,,0.07,12,Wunderground v.1.15,2013-03-18 21:15:00,
2013-03-18 17:20:00,36.5,33.8,30.05,ENE,59,0.0,0.0,90,0.04,,,0.07,19,Wunderground v.1.15,2013-03-18 21:20:00,
2013-03-18 17:25:00,36.6,33.9,30.05,ENE,59,0.0,0.0,90,0.04,,,0.07,16,Wunderground v.1.15,2013-03-18 21:25:00,
2013-03-18 17:30:00,36.6,34.2,30.04,ENE,59,0.0,0.0,91,0.04,,,0.07,16,Wunderground v.1.15,2013-03-18 21:30:00,
2013-03-18 17:35:00,36.7,34.3,30.04,ENE,59,0.0,0.0,91,0.00,,,0.08,16,Wunderground v.1.15,2013-03-18 21:35:00,
2013-03-18 17:40:00,36.8,34.4,30.05,ENE,59,0.0,0.0,91,0.00,,,0.08,9,Wunderground v.1.15,2013-03-18 21:40:00,
2013-03-18 17:45:00,36.8,34.4,30.05,NE,49,0.0,0.0,91,0.00,,,0.08,7,Wunderground v.1.15,2013-03-18 21:45:00,
2013-03-18 17:50:00,36.8,34.4,30.05,North,355,0.0,0.0,91,0.00,,,0.08,11,Wunderground v.1.15,2013-03-18 21:50:00,
2013-03-18 17:55:00,36.8,34.4,30.05,NW,324,0.0,1.0,91,0.00,,,0.09,5,Wunderground v.1.15,2013-03-18 21:55:00,
2013-03-18 18:00:00,36.8,34.4,30.04,NW,324,0.0,0.0,91,0.10,,,0.10,12,Wunderground v.1.15,2013-03-18 22:00:00,
2013-03-18 18:05:00,36.8,34.4,30.04,NW,323,0.0,0.0,91,0.09,,,0.11,9,Wunderground v.1.15,2013-03-18 22:05:00,
2013-03-18 18:10:00,36.8,34.4,30.03,NW,324,0.0,0.0,91,0.09,,,0.11,12,Wunderground v.1.15,2013-03-18 22:10:00,
2013-03-18 18:16:00,36.9,34.5,30.03,NW,324,0.0,0.0,91,0.09,,,0.12,7,Wunderground v.1.15,2013-03-18 22:16:00,
2013-03-18 18:21:00,36.9,34.8,30.02,NW,323,0.0,0.0,92,0.07,,,0.12,7,Wunderground v.1.15,2013-03-18 22:21:00,
2013-03-18 18:26:00,36.9,34.8,30.02,NNW,327,0.0,0.0,92,0.04,,,0.12,7,Wunderground v.1.15,2013-03-18 22:26:00,
2013-03-18 18:31:00,36.9,34.8,30.02,NNW,331,0.0,0.0,92,0.04,,,0.13,0,Wunderground v.1.15,2013-03-18 22:31:00,
2013-03-18 18:36:00,36.9,34.8,30.02,ENE,63,4.0,4.0,92,0.09,,,0.14,5,Wunderground v.1.15,2013-03-18 22:36:00,
2013-03-18 18:41:00,36.9,34.8,30.01,ENE,62,0.0,0.0,92,0.09,,,0.14,9,Wunderground v.1.15,2013-03-18 22:41:00,
2013-03-18 18:46:00,36.8,34.7,30.01,ENE,61,0.0,0.0,92,0.05,,,0.14,5,Wunderground v.1.15,2013-03-18 22:46:00,
2013-03-18 18:51:00,36.8,34.7,30.01,ENE,62,0.0,0.0,92,0.00,,,0.14,5,Wunderground v.1.15,2013-03-18 22:51:00,
2013-03-18 18:56:00,36.8,34.7,30.01,ENE,62,0.0,0.0,92,0.00,,,0.15,0,Wunderground v.1.15,2013-03-18 22:56:00,
2013-03-18 19:01:00,36.8,34.7,30.00,ENE,61,0.0,0.0,92,0.00,,,0.15,0,Wunderground v.1.15,2013-03-18 23:01:00,
2013-03-18 19:06:00,36.8,34.7,29.99,ENE,59,0.0,0.0,92,0.00,,,0.15,0,Wunderground v.1.15,2013-03-18 23:06:00,
2013-03-18 19:11:00,36.8,34.7,29.99,ENE,65,0.0,5.0,92,0.00,,,0.15,0,Wunderground v.1.15,2013-03-18 23:11:00,
2013-03-18 19:17:00,36.8,34.7,29.99,ENE,64,0.0,5.0,92,0.00,,,0.15,0,Wunderground v.1.15,2013-03-18 23:17:00,
2013-03-18 19:22:00,36.8,34.7,30.00,ENE,64,0.0,0.0,92,0.00,,,0.15,0,Wunderground v.1.15,2013-03-18 23:22:00,
2013-03-18 19:27:00,36.8,34.7,29.98,ENE,65,0.0,0.0,92,0.00,,,0.16,0,Wunderground v.1.15,2013-03-18 23:27:00,
2013-03-18 19:32:00,36.8,34.7,29.98,ENE,60,2.0,4.0,92,0.08,,,0.17,0,Wunderground v.1.15,2013-03-18 23:32:00,
2013-03-18 19:37:00,36.7,34.6,29.96,ENE,63,0.0,5.0,92,0.12,,,0.18,0,Wunderground v.1.15,2013-03-18 23:37:00,
2013-03-18 19:42:00,36.7,34.6,29.97,ENE,64,0.0,1.0,92,0.08,,,0.18,0,Wunderground v.1.15,2013-03-18 23:42:00,
2013-03-18 19:47:00,36.7,34.6,29.96,ENE,66,0.0,1.0,92,0.05,,,0.18,0,Wunderground v.1.15,2013-03-18 23:47:00,
2013-03-18 19:52:00,36.7,34.6,29.97,ENE,59,0.0,3.0,92,0.00,,,0.18,0,Wunderground v.1.15,2013-03-18 23:52:00,
2013-03-18 19:57:00,36.6,34.5,29.97,ENE,59,0.0,3.0,92,0.00,,,0.18,0,Wunderground v.1.15,2013-03-18 23:57:00,
2013-03-18 20:02:00,36.6,34.5,29.97,ENE,59,0.0,0.0,92,0.00,,,0.18,0,Wunderground v.1.15,2013-03-19 00:02:00,
2013-03-18 20:08:00,36.6,34.5,29.98,ENE,59,0.0,0.0,92,0.00,,,0.19,0,Wunderground v.1.15,2013-03-19 00:08:00,
2013-03-18 20:13:00,36.6,34.5,29.97,ENE,59,0.0,0.0,92,0.06,,,0.20,0,Wunderground v.1.15,2013-03-19 00:13:00,
2013-03-18 20:18:00,36.6,34.5,29.97,ENE,59,0.0,0.0,92,0.06,,,0.20,0,Wunderground v.1.15,2013-03-19 00:18:00,
2013-03-18 20:23:00,36.6,34.5,29.96,ENE,59,0.0,0.0,92,0.05,,,0.20,0,Wunderground v.1.15,2013-03-19 00:23:00,
2013-03-18 20:28:00,36.6,34.5,29.96,ENE,59,0.0,0.0,92,0.04,,,0.20,0,Wunderground v.1.15,2013-03-19 00:28:00,
2013-03-18 20:34:00,36.7,34.6,29.96,ENE,59,0.0,0.0,92,0.00,,,0.20,0,Wunderground v.1.15,2013-03-19 00:34:00,
2013-03-18 20:39:00,36.6,34.5,29.96,ENE,59,0.0,0.0,92,0.00,,,0.20,0,Wunderground v.1.15,2013-03-19 00:39:00,
2013-03-18 20:44:00,36.7,34.9,29.96,ENE,59,0.0,0.0,93,0.00,,,0.20,0,Wunderground v.1.15,2013-03-19 00:44:00,
2013-03-18 20:49:00,36.7,34.9,29.96,ENE,59,0.0,0.0,93,0.00,,,0.20,0,Wunderground v.1.15,2013-03-19 00:49:00,
2013-03-18 20:54:00,36.8,35.0,29.96,ENE,59,0.0,0.0,93,0.00,,,0.20,0,Wunderground v.1.15,2013-03-19 00:54:00,
2013-03-18 20:59:00,36.8,35.0,29.96,ENE,59,0.0,0.0,93,0.00,,,0.20,0,Wunderground v.1.15,2013-03-19 00:59:00,
2013-03-18 21:04:00,36.8,35.0,29.96,ENE,59,0.0,0.0,93,0.00,,,0.20,0,Wunderground v.1.15,2013-03-19 01:04:00,
2013-03-18 21:09:00,36.8,35.0,29.95,ENE,59,0.0,0.0,93,0.00,,,0.20,0,Wunderground v.1.15,2013-03-19 01:09:00,
2013-03-18 21:14:00,36.8,35.0,29.95,ENE,59,0.0,0.0,93,0.00,,,0.20,0,Wunderground v.1.15,2013-03-19 01:14:00,
2013-03-18 21:19:00,36.9,35.1,29.96,ENE,59,0.0,0.0,93,0.00,,,0.20,0,Wunderground v.1.15,2013-03-19 01:19:00,
2013-03-18 21:24:00,36.9,35.1,29.95,ENE,59,0.0,0.0,93,0.00,,,0.20,0,Wunderground v.1.15,2013-03-19 01:24:00,
2013-03-18 21:29:00,36.9,35.1,29.95,ENE,57,0.0,0.0,93,0.00,,,0.20,0,Wunderground v.1.15,2013-03-19 01:29:00,
2013-03-18 21:34:00,36.8,35.0,29.95,ENE,57,0.0,0.0,93,0.00,,,0.20,0,Wunderground v.1.15,2013-03-19 01:34:00,
2013-03-18 21:39:00,36.8,35.0,29.94,NE,56,0.0,0.0,93,0.00,,,0.20,0,Wunderground v.1.15,2013-03-19 01:39:00,
2013-03-18 21:44:00,36.9,35.1,29.94,NE,56,0.0,0.0,93,0.00,,,0.20,0,Wunderground v.1.15,2013-03-19 01:44:00,
2013-03-18 21:49:00,36.8,35.0,29.94,NE,55,0.0,0.0,93,0.00,,,0.21,0,Wunderground v.1.15,2013-03-19 01:49:00,
2013-03-18 21:54:00,36.8,35.0,29.94,NE,55,0.0,0.0,93,0.00,,,0.21,0,Wunderground v.1.15,2013-03-19 01:54:00,
2013-03-18 21:59:00,36.8,35.0,29.93,NE,55,0.0,0.0,93,0.00,,,0.21,0,Wunderground v.1.15,2013-03-19 01:59:00,
2013-03-18 22:04:00,36.8,35.0,29.93,NE,55,0.0,0.0,93,0.00,,,0.21,0,Wunderground v.1.15,2013-03-19 02:04:00,
2013-03-18 22:09:00,36.7,34.9,29.93,NE,55,0.0,0.0,93,0.00,,,0.21,0,Wunderground v.1.15,2013-03-19 02:09:00,
2013-03-18 22:14:00,36.7,34.9,29.92,NE,55,0.0,0.0,93,0.00,,,0.21,0,Wunderground v.1.15,2013-03-19 02:14:00,
2013-03-18 22:19:00,36.7,34.9,29.92,NE,55,0.0,0.0,93,0.00,,,0.21,0,Wunderground v.1.15,2013-03-19 02:19:00,
2013-03-18 22:25:00,36.7,34.9,29.91,NE,55,0.0,0.0,93,0.00,,,0.21,0,Wunderground v.1.15,2013-03-19 02:25:00,
2013-03-18 22:30:00,36.7,34.9,29.91,NE,55,0.0,0.0,93,0.00,,,0.21,0,Wunderground v.1.15,2013-03-19 02:30:00,
2013-03-18 22:35:00,36.7,34.9,29.90,NE,55,0.0,0.0,93,0.00,,,0.21,0,Wunderground v.1.15,2013-03-19 02:35:00,
2013-03-18 22:40:00,36.7,34.9,29.90,NE,55,0.0,0.0,93,0.00,,,0.21,0,Wunderground v.1.15,2013-03-19 02:40:00,
2013-03-18 22:45:00,36.7,34.9,29.89,NE,56,0.0,0.0,93,0.00,,,0.21,0,Wunderground v.1.15,2013-03-19 02:45:00,
2013-03-18 22:50:00,36.7,34.9,29.89,NE,56,0.0,0.0,93,0.00,,,0.21,0,Wunderground v.1.15,2013-03-19 02:50:00,
2013-03-18 22:55:00,36.7,34.9,29.88,NE,56,0.0,0.0,93,0.00,,,0.21,0,Wunderground v.1.15,2013-03-19 02:55:00,
2013-03-18 23:01:00,36.7,34.9,29.90,NE,56,0.0,0.0,93,0.00,,,0.21,0,Wunderground v.1.15,2013-03-19 03:01:00,
2013-03-18 23:06:00,36.7,34.9,29.90,NNW,344,0.0,0.0,93,0.00,,,0.21,0,Wunderground v.1.15,2013-03-19 03:06:00,
2013-03-18 23:11:00,36.6,34.8,29.90,NNW,341,0.0,0.0,93,0.00,,,0.21,0,Wunderground v.1.15,2013-03-19 03:11:00,
2013-03-18 23:16:00,36.6,34.8,29.90,NNW,328,0.0,0.0,93,0.00,,,0.21,0,Wunderground v.1.15,2013-03-19 03:16:00,
2013-03-18 23:21:00,36.6,34.8,29.90,NNW,329,0.0,0.0,93,0.00,,,0.21,0,Wunderground v.1.15,2013-03-19 03:21:00,
2013-03-18 23:26:00,36.6,34.8,29.89,NNW,329,0.0,0.0,93,0.00,,,0.21,0,Wunderground v.1.15,2013-03-19 03:26:00,
2013-03-18 23:31:00,36.6,34.8,29.89,NNW,329,0.0,0.0,93,0.00,,,0.21,0,Wunderground v.1.15,2013-03-19 03:31:00,
2013-03-18 23:36:00,36.6,34.8,29.88,NNW,329,0.0,0.0,93,0.00,,,0.21,0,Wunderground v.1.15,2013-03-19 03:36:00,
2013-03-18 23:41:00,36.5,34.7,29.88,NNW,329,0.0,0.0,93,0.00,,,0.21,0,Wunderground v.1.15,2013-03-19 03:41:00,
2013-03-18 23:46:00,36.5,34.7,29.88,NNW,328,0.0,0.0,93,0.00,,,0.21,0,Wunderground v.1.15,2013-03-19 03:46:00,
2013-03-18 23:52:00,36.5,34.7,29.88,NNW,328,0.0,0.0,93,0.00,,,0.21,0,Wunderground v.1.15,2013-03-19 03:52:00,
2013-03-18 23:56:00,36.4,34.6,29.88,NNW,327,0.0,0.0,93,0.00,,,0.21,0,Wunderground v.1.15,2013-03-19 03:56:00,